sat.trackr.live / text

‹ back to catalog

STARLINK-4579

NORAD 53677 · 2022-105AF

PAYLOAD ACTIVE UNKNOWN

§ Identity

Operator
Country
US
Launch date
2022-08-31
Launch site
AFWTR
Launch vehicle
Mass (kg)
RCS (m²)

Purposes: comms

External: N2YO · Heavens-Above · Gunter

§ Orbital elements

Epoch: 2026-05-25T02:46:57.318816Z

Period
95.64 min
Inclination
97.4527°
Eccentricity
0.0002014
Mean motion
15.05657901 rev/d
Perigee alt
548.1 km
Apogee alt
550.9 km
Semi-major
6,927.6 km
B*
-2.0092e-4
RAAN
26.1884°
Arg perigee
81.0695°
Mean anomaly
279.0760°
Rev number
20,480

§ Raw data

STARLINK-45791 53677U 22105AF  26145.11594119 -.00002957  00000+0 -20092-3 0  99972 53677  97.4527  26.1884 0002014  81.0695 279.0760 15.05657901204803

JSON: /api/v1/satellites/53677 · /tle

For live sub-satellite position, see the globe view (requires WebGL).

§ Visibility from observer

Set your observer location to see the next 7 days of passes ≥ 10°. The values pass through the URL so the page stays shareable.

No JS? Fill the form by hand. The geolocation button needs JavaScript.